Volver al catálogo

STARLINK-31686

ActivoComunicacionesVLEO
NORAD 59579·PAYLOAD·🇺🇸 United States

Lanzado Apr 23, 2024 desde Cape Canaveral Space Force Station

Loading…

Próximos Pases (próximas 24 horas)

TLE

ActualizadoSource: CelesTrak SupGP

Época: Sep 15, 2026, 02:23 UTC

1 59579C 24076R   26258.09979167 -.00006210  00000+0 -22490-3 0  2583
2 59579  43.0021  19.0002 0001382 263.8424 111.2051 15.27586387    16

Sigue STARLINK-31686 en tiempo real con AllMySat

Download on the App Store